Regional Weather Roundup
Issued by NWS

Home | Current Version | Previous Version | Text Only | Print | Product List | Glossary On
Versions: 1 2 3 4 5 6 7 8 9 10 11 12 13 14 15 16 17 18 19 20 21 22 23 24 25 26 27 28 29 30 31 32 33 34 35 36 37 38 39 40 41 42 43 44 45 46 47 48 49
000
ASUS43 KDMX 230007
RWRIA

WEATHER ROUNDUP FOR IOWA
NATIONAL WEATHER SERVICE DES MOINES IA
600 PM CST MON DEC 22 2014

NOTE: "FAIR" INDICATES FEW OR NO CLOUDS BELOW 12,000 FEET WITH NO
SIGNIFICANT WEATHER AND/OR OBSTRUCTIONS TO VISIBILITY.

* - THESE STATIONS ARE NOT NWS STATIONS...THUS NOT UNDER NWS
QUALITY CONTROL.  THEY ALSO DO NOT REPORT WEATHER SUCH
AS PRECIPITATION OR FOG.

IAZ001>003-012>014-020>022-031>034-043>046-230100-
   NORTHWEST IOWA

CITY           SKY/WX    TMP DP  RH WIND       PRES   REMARKS
CARROLL *      CLOUDY    39  39 100 E9        29.44S FOG     WCI  33
CHEROKEE *     RAIN      38  38 100 E7        29.45R WCI  33
DENISON *      MIX PCPN  39  39 100 E7        29.41S WCI  34
LE MARS *      LGT RAIN  39  39 100 CALM      29.44R
ORANGE CITY *  DRIZZLE   39  37  93 E7        29.43R WCI  34
SHELDON *      CLOUDY    37  37 100 E12       29.44R FOG     WCI  30
SIOUX CITY     LGT RAIN  40  38  93 NW9       29.43S WCI  34
6HR MIN TEMP:  40; 6HR MAX TEMP:  43; 6HR PCP:  0.04;

SPENCER        LGT RAIN  37  35  92 E14       29.47R FOG     WCI  28
6HR MIN TEMP:  37; 6HR MAX TEMP:  41; 6HR PCP:  0.02;

STORM LAKE *   MIX PCPN  37  37 100 SE12G18   29.45R WCI  30
$$

IAZ055>058-069>071-079>083-090>094-230100-
   SOUTHWEST IOWA

CITY           SKY/WX    TMP DP  RH WIND       PRES   REMARKS
ATLANTIC *     CLOUDY    41  41 100 E6        29.42R
AUDUBON *      RAIN      39  36  87 E6        29.43S WCI  35
CLARINDA *     LGT RAIN  43  43 100 CALM      29.44R
COUNCIL BLFS * LGT RAIN  41  41 100 NW8       29.42R
CRESTON *      CLOUDY    41  41 100 SE8       29.43S FOG
HARLAN  *      CLOUDY    41  41 100 CALM      29.45S
LAMONI         LGT RAIN  41  41 100 SE6       29.42F FOG
6HR MIN TEMP:  40; 6HR MAX TEMP:  41; 6HR PCP:  0.08;

RED OAK *      CLOUDY    41  41 100 CALM      29.42S
SHENANDOAH *   CLOUDY    43  43 100 W8        29.44R
$$

IAZ047>049-059>061-072>074-084-230100-
   CENTRAL IOWA

CITY           SKY/WX    TMP DP  RH WIND       PRES   REMARKS
AMES           MIX PCPN  37  36  96 E9        29.48R FOG     WCI  30
6HR MIN TEMP:  37; 6HR MAX TEMP:  39; 6HR PCP:  0.06;

ANKENY *       MIX PCPN  39  39 100 SE9       29.47S WCI  33
CHARITON *     MIX PCPN  39  39 100 SE10      29.45S WCI  32
DES MOINES     LGT RAIN  40  38  93 E7        29.46S FOG
6HR MIN TEMP:  40; 6HR MAX TEMP:  41; 6HR PCP:  0.08;

GRINNELL*      FOG       37  37 100 E12       29.49S VSB 1/2 WCI  30
KNOXVILLE *    MIX PCPN  39  37  93 E8        29.45F WCI  34
MARSHALLTOWN   FOG       36  36 100 E9        29.48S VSB 1   WCI  29
6HR MIN TEMP:  36; 6HR MAX TEMP:  38; 6HR PCP:  0.05;

PELLA *        DRIZZLE   38  38  99 E8        29.49S WCI  32
PERRY *        CLOUDY    39  39 100 E12       29.46R FOG     WCI  32
$$

IAZ004>006-015-016-023>025-035-036-230100-
   NORTH CENTRAL IOWA

CITY           SKY/WX    TMP DP  RH WIND       PRES   REMARKS
ALGONA *       CLOUDY    36 N/A N/A E10G16    29.50R FOG     WCI  28
CLARION *      CLOUDY    36  36 100 E14       29.49S FOG     WCI  27
ESTHERVILLE    CLOUDY    34  34 100 E14       29.48R FOG     WCI  25
6HR MIN TEMP:  34; 6HR MAX TEMP:  37; 6HR PCP:  0.02;

FORT DODGE *   CLOUDY    36  34  93 E14       29.48S WCI  27
MASON CITY     CLOUDY    36  35  96 E13       29.53S FOG     WCI  27
6HR MIN TEMP:  34; 6HR MAX TEMP:  36; 6HR PCP:  0.04;

FOREST CITY *  CLOUDY    36  34  93 E13G18    29.51S FOG     WCI  27
IOWA FALLS *   LGT RAIN  36  34  95 E13       29.50S WCI  27
$$

IAZ007>011-017>019-026>030-037>042-050>054-066-230100-
   NORTHEAST IOWA

CITY           SKY/WX    TMP DP  RH WIND       PRES   REMARKS
CEDAR RAPIDS   FOG       36  36 100 E10       29.52S VSB 1/2 WCI  28
6HR MIN TEMP:  36; 6HR MAX TEMP:  37; 6HR PCP:  0.04;

CHARLES CITY * CLOUDY    36  36 100 E16G23    29.54S FOG     WCI  26
CLINTON *      CLOUDY    37  36  93 E12       29.60S WCI  30
DECORAH *      CLOUDY    34  34 100 E13       29.56S FOG     WCI  25
DUBUQUE        FOG       35  34  96 SE12      29.57F VSB 3/4 WCI  27
6HR MIN TEMP:  35; 6HR MAX TEMP:  36; 6HR PCP:  0.10;

MONTICELLO *   FOG       36  36 100 E10       29.56S VSB 1   WCI  28
OELWEIN *      CLOUDY    36  36 100 E12G17    29.55R FOG     WCI  27
WATERLOO       LGT RAIN  35  35 100 E15       29.52F FOG     WCI  25
6HR MIN TEMP:  35; 6HR MAX TEMP:  37; 6HR PCP:  0.05;

$$

IAZ064-065-067-068-078-230100-
   EAST CENTRAL IOWA

CITY           SKY/WX    TMP DP  RH WIND       PRES   REMARKS
DAVENPORT      CLOUDY    38  36  92 E8        29.56F FOG     WCI  32
6HR MIN TEMP:  36; 6HR MAX TEMP:  38; 6HR PCP:  0.06;

IOWA CITY      FOG       38  38 100 E5        29.55S VSB 3/4 WCI  34
6HR MIN TEMP:  37; 6HR MAX TEMP:  38; 6HR PCP:  0.05;

MT. PLEASANT * DRZL/FOG  40  40 100 E9        29.52S VSB 1   WCI  33
MUSCATINE *    FOG       41  39  93 E9        29.54F VSB 1
QUAD CITIES    CLOUDY    39  38  96 E7        29.55F FOG     WCI  34
6HR MIN TEMP:  36; 6HR MAX TEMP:  39; 6HR PCP:  0.09;

$$

IAZ062-063-075>077-085>089-095>099-230100-
   SOUTHEAST IOWA

CITY           SKY/WX    TMP DP  RH WIND       PRES   REMARKS
BURLINGTON     LGT RAIN  42  42 100 E7        29.52S VSB 1
6HR MIN TEMP:  38; 6HR MAX TEMP:  42; 6HR PCP:  0.04;

FAIRFIELD *    FOG       39  39 100 E9        29.50S VSB 1   WCI  33
FORT MADISON * DRZL/FOG  43  43 100 E8        29.52F VSB 1/2
KEOKUK *       LGT RAIN  43  43 100 E8        29.49F
OSKALOOSA *    FOG       38  37  97 E9        29.48F VSB 1/2 WCI  32
CENTERVILLE *  LGT RAIN  39  39 100 E7        29.47S WCI  34
OTTUMWA        FOG       39  38  96 E10       29.47F VSB 3/4 WCI  32
6HR MIN TEMP:  38; 6HR MAX TEMP:  39; 6HR PCP:  0.01;

WASHINGTON *   MIX PCPN  39  39 100 E10       29.51S VSB 1/4 WCI  32
$$

ABBREVIATIONS USED IN REMARKS
   TC - TEMPERATURES IN CELSIUS
  WCI - WIND CHILL INDEX
   HX - HEAT INDEX
  VSB - VISIBILITY
$$



USA.gov is the U.S. government's official web portal to all federal, state and local government web resources and services.